Location: Buckland
(65.9785°N, 161.1281°W)
Time: 06:25:10
(UTC+00:00)

Transit 2A Rocket - Pass Details

Date: 26 November 2020
Orbit: 592 x 910 km, 66.7° (Epoch: 21 January)

Event Time Altitude Azimuth Distance (km) Brightness Sun altitude
Exits shadow 14:03:10 32° 110° (ESE) 1,360 6.5 -33.9°
Drops below altitude 10° 14:07:04 10° 66° (ENE) 2,332 8.3 -33.6°
Sets 14:09:33 0° 58° (ENE) 3,208 9.3 -33.4°
